Weather in Rogachevo

Russia / Arkhangel'skaya Oblast'     71°36′43″N   52°27′18″E
В апреле 2022 года жителям России запретили посещать сайт meteo.paraplan.net по решению Генеральной прокуратуры. Аудитория сайта уменьшилась в 10 раз. Владельцы сайта не видят смысла в поддержке погодного сервера в таких условиях. Сайт будет закрыт в октябре.
temp.,
°C
wind,
m/s
gust,
m/s
humid.,
%
clouds,
%
prec.,
mm/h
press.,
hPa
HPBL,
m
25 september, sun
sun2500:00+1sse567585 0.0 1031338
03:00+2sse6672100 0.0 1031420
06:00+2sse677699 0.0 1031377
09:00+2sse6772100 0.0 1030718
12:00+3sse5668100 0.0 1030955
15:00+3sse6768100 0.0 1030693
18:00+3sse6771100 0.0 1029545
21:00+3sse6872100 0.0 1028742
26 september, mon
mon2600:00+4sse6873100 0.0 1028637
03:00+3se5879100 0.1 1028438
06:00+3se697993 0.0 1027504
09:00+4se7876100 0.0 1028847
12:00+4se7871100 0.0 1028885
15:00+4se787192 0.0 1028808
18:00+3se7107838 0.0 1028501
21:00+2se810825 0.0 1029462
27 september, tue
tue2700:00+2ese810815 0.0 1029437
03:00+2ese810825 0.0 1029428
06:00+2se810825 0.0 1030450
09:00+3se810765 0.0 1031681
12:00+3se887226 0.0 1031836
15:00+4se677013 0.0 1032720
18:00+2se577521 0.0 1032479
21:00+2se68736 0.0 1033433
28 september, wed
wed2800:00+1se577843 0.0 1034336
03:00+2sse567187 0.0 1033550
06:00+3sse5666100 0.0 1033635
09:00+3s5665100 0.0 1033927
12:00+3s5566100 0.0 1033986
15:00+3ssw4569100 0.1 1033660
18:00+3ssw4565100 0.0 1032644
21:00+4ssw566693 0.1 1032521
29 september, thu
thu2900:00+2ssw577921 0.0 1032385
03:00+2ssw47808 0.0 1032376
06:00+3sw46805 0.0 1031308
09:00+4sw46755 0.0 1031488
12:00+5sw56778 0.0 1031481
15:00+4sw57885 0.0 1030281
18:00+4sw479038 0.0 1030145
21:00+4sw468856 0.0 1030154